Regional Weather Roundup
Issued by NWS Sterling, VA

Home | Current Version | Previous Version | Graphics & Text | Print | Product List | Glossary On
Versions: 1 2 3 4 5 6 7 8 9 10 11 12 13 14 15 16 17 18 19 20 21 22 23 24 25 26 27 28 29 30 31 32 33 34 35 36 37 38 39 40 41 42 43 44 45 46 47 48 49 50
000
ASUS41 KLWX 182210
RWRLWX

REGIONAL WEATHER ROUNDUP
NATIONAL WEATHER SERVICE BALTIMORE MD/WASHINGTON DC
500 PM EST THU DEC 18 2014

Note: "FAIR" indicates few or no clouds below 12,000 feet
with no significant weather and/or obstructions to visibility.
 TC=TEMPERATURE CELSIUS

 * =Non NWS site. Station does not report precipitation (e.g. rain,
    snow, etc.), thunder, or fog.

DCZ001-MDZ009-015-VAZ040>042-051-053>054-182300-
WASHINGTON METRO

CITY           SKY/WX    TMP DP  RH WIND       PRES   REMARKS
WASHINGTON NAT MOCLDY    40  22  48 NW12      30.11F
DULLES         MOCLDY    35  21  56 NW8       30.11R WCI  29
FT BELVOIR     MOCLDY    38  22  53 W9        30.11S
QUANTICO       PTCLDY    39  22  50 N7        30.12S
COLLEGE PARK*  CLEAR     36  23  60 W7        30.10S
LEESBURG*      PTCLDY    36  27  69 W5        30.12R
MANASSAS*      MOCLDY    37  25  60 NW8       30.11S
GAITHERSBURG*  PTCLDY    34  21  60 NW6       30.12S

$$

MDZ006>007-011-014-182300-
BALTIMORE METRO

CITY           SKY/WX    TMP DP  RH WIND       PRES   REMARKS
BWI AIRPORT    MOCLDY    35  22  58 NW3       30.08R
MD SCIENCE CTR   N/A     37  22  54 MISG      30.08R
MARTIN STATE   MOCLDY    37  27  65 W14       30.10S WCI  29
ANNAPOLIS      PTCLDY    38  24  57 VRB3      30.09S
FORT MEADE*    CLEAR     34  23  64 W6        30.11S

$$

MDZ012-015-019>023-182300-
MARYLAND EASTERN SHORE

CITY           SKY/WX    TMP DP  RH WIND       PRES   REMARKS
OCEAN CITY     CLEAR     37  23  56 NW9       30.07R
SALISBURY      CLEAR     39  23  52 NW9       30.07S
BAY BRIDGE AP*   N/A     37  23  56 NW10      30.09S
CAMBRIDGE*     CLEAR     37  25  60 NW6       30.09R
EASTON*        MOCLDY    37  27  65 NW9G21    30.12S

$$

MDZ017>025-182300-
SOUTHERN MARYLAND

CITY           SKY/WX    TMP DP  RH WIND       PRES   REMARKS
PATUXENT RIVER PTCLDY    38  22  52 NW13      30.09S
ST INIGOES     CLEAR     39  20  46 NW6       30.09S
LEONARDTOWN*     N/A     37  21  52 MISG        N/A

$$

MDZ003>005-182300-
NORTH CENTRAL MARYLAND

CITY           SKY/WX    TMP DP  RH WIND       PRES   REMARKS
FREDERICK*     CLEAR     37  19  48 N6        30.12S
HAGERSTOWN APT MOCLDY    34  22  61 NW14      30.09R WCI  25
WESTMINSTER*   PTCLDY    34  21  60 NW7       30.06S

$$

MDZ501>502-182300-
WESTERN MARYLAND

CITY           SKY/WX    TMP DP  RH WIND       PRES   REMARKS
OAKLAND*       NOT AVBL
CUMBERLAND*    CLOUDY    32  21  64 NW5       30.17S

$$

VAZ025>031-182300-
SHENANDOAH VALLEY

CITY           SKY/WX    TMP DP  RH WIND       PRES   REMARKS
WINCHESTER*    MOCLDY    34  19  55 NW12      30.11R WCI  25
FRONT ROYAL*   FAIR      34  21  60 NW6       30.10R
LURAY*         FAIR      37  27  65 NE3       30.08R
NEW MARKET*    FAIR      36  23  58 N7        30.07S
STAUNTON*      CLOUDY    39  23  53 CALM      30.08S
WAYNESBORO*    CLOUDY    38  22  53 NW3       30.05S

$$

WVZ021-048>050-054>055-182300-
EASTERN WEST VIRGINIA PANHANDLE

CITY           SKY/WX    TMP DP  RH WIND       PRES   REMARKS
MARTINSBURG    MOCLDY    35  19  52 NW8       30.11R WCI  29
PETERSBURG*    NOT AVBL

$$

VAZ036>039-050-182300-
CENTRAL FOOTHILLS

CITY           SKY/WX    TMP DP  RH WIND       PRES   REMARKS
CHARLOTTESVILL CLOUDY    42  21  43 CALM      30.07R
CULPEPER*      CLOUDY    37  25  60 N6        30.12R
ORANGE*        CLOUDY    37  27  65 CALM      30.11R
GORDONSVILLE*  FAIR      40  23  50 NE3       30.09R
WARRENTON*     FAIR      38  29  70 N6        30.11R

$$

VAZ055>057-182300-
NORTH AND CENTRAL PIEDMONT

CITY           SKY/WX    TMP DP  RH WIND       PRES   REMARKS
FREDERICKSBRG* PTCLDY    40  25  54 N8        30.10S
STAFFORD*      PTCLDY    37  22  55 N7        30.15R

$$

NCZ024-NYZ072-PAZ021-071-VAZ022-071-182300-
OTHER REGIONAL OBSERVATIONS

CITY           SKY/WX    TMP DP  RH WIND       PRES   REMARKS
NEW YORK CITY  CLOUDY    40  24  53 NW10G23   29.99R
PHILADELPHIA   MOCLDY    39  23  52 W10       30.05R
PITTSBURGH     CLOUDY    29  21  72 W9        30.15S WCI  20
ROANOKE        CLOUDY    42  22  44 W5        30.08S
RICHMOND       MOCLDY    41  22  46 N3        30.09S
RALEIGH        MOCLDY    47  24  40 N3        30.08F

$$

ANZ530>537-182300-
MARINE OBSERVATIONS

STATION/POSITION TIME  TEMP    WIND        PRES
                       AIR SEA DIR/SP/G
                 (UTC) (F)     (DEG/KT/KT) (MB)
THOMAS PT LIGHT  2200   38 42  310/  7/  9 1020.1R
BALT KEY BRIDGE  2200   38     300/ 12/ 15 1018.6R
COVE POINT       2200   38     330/ 11/ 13 1018.9R
LEWISETTA        2200   40 44  330/  7/  9 1018.9R
SOLOMONS ISLAND  2200      44                N/A
PINEY POINT      2200          340/ 14/ 15   N/A

$$



USA.gov is the U.S. government's official web portal to all federal, state and local government web resources and services.